DAL9754 KLAX-KSEA

Flight info

Callsign DAL9754
Flight time 2h 10m
Altitude 40000
Route LADYJ4 CSTRO SHIMR LKV HAWKZ8
Aircraft A359/H-SDE2E3GHIJ3J4J5LM1ORWXY/LB1D1

Departure

Time 2026-05-06 22:49
Airport Los Angeles International Airport (KLAX)

Arrival

Time 2026-05-07 00:59
Airport Seattle–Tacoma International Airport (KSEA)
Time Latitude Longitude Altitude Speed Heading
2026-05-06 21:58 33.94531 -118.40801 102 ft 0 kts 93°
2026-05-06 22:02 33.94531 -118.40802 99 ft 0 kts 93°
2026-05-06 22:09 33.94532 -118.40802 99 ft 0 kts 93°
2026-05-06 22:09 33.94531 -118.40802 99 ft 0 kts 93°
2026-05-06 22:09 33.94532 -118.40802 99 ft 0 kts 93°
2026-05-06 22:10 33.94532 -118.40803 99 ft 0 kts 93°
2026-05-06 22:17 33.94532 -118.40804 99 ft 0 kts 93°
2026-05-06 22:25 33.94532 -118.40805 99 ft 0 kts 93°
2026-05-06 22:33 33.94532 -118.40806 99 ft 0 kts 93°
2026-05-06 22:37 33.94532 -118.40819 102 ft 2 kts 93°
2026-05-06 22:37 33.94532 -118.40845 99 ft 4 kts 69°
2026-05-06 22:37 33.94517 -118.40869 97 ft 4 kts 30°
2026-05-06 22:38 33.94516 -118.40871 97 ft 4 kts 23°
2026-05-06 22:38 33.94537 -118.40870 102 ft 1 kts 353°
2026-05-06 22:41 33.94541 -118.40870 101 ft 2 kts 354°
2026-05-06 22:41 33.94570 -118.40881 101 ft 7 kts 342°
2026-05-06 22:41 33.94631 -118.40897 100 ft 10 kts 351°
2026-05-06 22:42 33.94661 -118.40903 101 ft 0 kts 351°
2026-05-06 22:42 33.94662 -118.40903 101 ft 0 kts 351°
2026-05-06 22:44 33.94696 -118.40910 100 ft 10 kts 351°
2026-05-06 22:45 33.94740 -118.40902 101 ft 5 kts 20°
2026-05-06 22:45 33.94791 -118.40881 103 ft 10 kts 17°
2026-05-06 22:45 33.94838 -118.40817 102 ft 13 kts 76°
2026-05-06 22:45 33.94854 -118.40705 102 ft 6 kts 85°
2026-05-06 22:46 33.94858 -118.40642 101 ft 10 kts 85°
2026-05-06 22:46 33.94868 -118.40537 100 ft 15 kts 83°
2026-05-06 22:46 33.94879 -118.40433 103 ft 7 kts 82°
2026-05-06 22:46 33.94889 -118.40349 102 ft 13 kts 82°
2026-05-06 22:47 33.94900 -118.40246 104 ft 10 kts 83°
2026-05-06 22:47 33.94908 -118.40162 101 ft 9 kts 83°
2026-05-06 22:47 33.94917 -118.40071 103 ft 12 kts 83°
2026-05-06 22:47 33.94936 -118.39954 102 ft 16 kts 62°
2026-05-06 22:48 33.95025 -118.39921 100 ft 10 kts 334°
2026-05-06 22:48 33.95039 -118.39989 101 ft 0 kts 260°
2026-05-06 22:48 33.95039 -118.39990 101 ft 3 kts 260°
2026-05-06 22:48 33.95005 -118.40329 104 ft 86 kts 263°
2026-05-06 22:49 33.94897 -118.41370 122 ft 160 kts 262°
2026-05-06 22:49 33.94746 -118.42729 1028 ft 165 kts 261°
2026-05-06 22:49 33.94604 -118.44127 2093 ft 170 kts 265°
2026-05-06 22:49 33.94527 -118.45563 3049 ft 175 kts 269°
2026-05-06 22:50 33.94496 -118.47082 3730 ft 194 kts 272°
2026-05-06 22:50 33.94482 -118.48812 4292 ft 219 kts 273°
2026-05-06 22:50 33.94650 -118.50714 4835 ft 242 kts 289°
2026-05-06 22:50 33.95531 -118.52504 5475 ft 256 kts 314°
2026-05-06 22:51 33.96774 -118.54088 6414 ft 265 kts 317°
2026-05-06 22:51 33.98107 -118.55687 7240 ft 275 kts 318°
2026-05-06 22:51 33.99476 -118.57320 7788 ft 279 kts 319°
2026-05-06 22:51 34.00850 -118.58959 8578 ft 285 kts 319°
2026-05-06 22:52 34.02283 -118.60672 9839 ft 287 kts 319°
2026-05-06 22:52 34.03726 -118.62395 10764 ft 302 kts 320°
2026-05-06 22:52 34.05300 -118.64238 11210 ft 328 kts 321°
2026-05-06 22:52 34.07226 -118.65805 11813 ft 339 kts 339°
2026-05-06 22:53 34.09484 -118.66484 12729 ft 341 kts 359°
2026-05-06 22:53 34.11832 -118.66241 13857 ft 340 kts 11°
2026-05-06 22:53 34.14188 -118.65711 14631 ft 349 kts 13°
2026-05-06 22:53 34.16590 -118.65128 15533 ft 354 kts 13°
2026-05-06 22:54 34.18994 -118.64546 16565 ft 355 kts 13°
2026-05-06 22:54 34.21430 -118.63962 17546 ft 359 kts 12°
2026-05-06 22:54 34.23920 -118.63517 18425 ft 366 kts
2026-05-06 22:54 34.26483 -118.63709 19226 ft 373 kts 353°
2026-05-06 22:55 34.29056 -118.64260 20050 ft 378 kts 352°
2026-05-06 22:55 34.31687 -118.64874 20927 ft 382 kts 352°
2026-05-06 22:55 34.34308 -118.65485 21826 ft 386 kts 352°
2026-05-06 22:55 34.36926 -118.66090 22696 ft 390 kts 352°
2026-05-06 22:56 34.39608 -118.66706 23550 ft 395 kts 352°
2026-05-06 22:56 34.42327 -118.67329 24249 ft 400 kts 352°
2026-05-06 22:56 34.45079 -118.67933 24956 ft 404 kts 354°
2026-05-06 22:56 34.47866 -118.68467 25666 ft 407 kts 354°
2026-05-06 22:57 34.50683 -118.68999 26390 ft 411 kts 354°
2026-05-06 22:57 34.53520 -118.69541 27082 ft 415 kts 354°
2026-05-06 22:57 34.56387 -118.70094 27784 ft 419 kts 354°
2026-05-06 22:57 34.59284 -118.70656 28496 ft 423 kts 354°
2026-05-06 22:58 34.62203 -118.71225 29151 ft 427 kts 354°
2026-05-06 22:58 34.65154 -118.71802 29800 ft 431 kts 354°
2026-05-06 22:58 34.68129 -118.72387 30386 ft 436 kts 354°
2026-05-06 22:58 34.71111 -118.73202 30883 ft 444 kts 347°
2026-05-06 22:59 34.74009 -118.74591 31409 ft 452 kts 338°
2026-05-06 22:59 34.75861 -118.75775 31721 ft 457 kts 335°
2026-05-06 22:59 34.77743 -118.77053 32048 ft 460 kts 335°
2026-05-06 22:59 34.82395 -118.80265 32857 ft 465 kts 335°
2026-05-06 23:00 34.85205 -118.82204 33321 ft 468 kts 335°
2026-05-06 23:00 34.86166 -118.82867 33467 ft 470 kts 335°
2026-05-06 23:00 34.87091 -118.83504 33608 ft 471 kts 335°
2026-05-06 23:00 34.92835 -118.87460 34406 ft 477 kts 335°
2026-05-06 23:01 34.95725 -118.89454 34901 ft 476 kts 335°
2026-05-06 23:01 35.01999 -118.93787 36105 ft 472 kts 335°
2026-05-06 23:01 35.04850 -118.95756 36550 ft 471 kts 335°
2026-05-06 23:02 35.07337 -118.97476 36975 ft 470 kts 334°
2026-05-06 23:02 35.09267 -118.98811 37302 ft 469 kts 334°
2026-05-06 23:02 35.12059 -119.00744 37794 ft 467 kts 335°
2026-05-06 23:02 35.13012 -119.01404 37952 ft 467 kts 335°
2026-05-06 23:03 35.17696 -119.04650 38692 ft 464 kts 334°
2026-05-06 23:03 35.20500 -119.06596 39043 ft 464 kts 334°
2026-05-06 23:03 35.23306 -119.08545 39376 ft 464 kts 334°
2026-05-06 23:03 35.26111 -119.10494 39711 ft 463 kts 334°
2026-05-06 23:04 35.28909 -119.12440 40008 ft 463 kts 334°
2026-05-06 23:04 35.34508 -119.16339 40084 ft 462 kts 334°
2026-05-06 23:05 35.40096 -119.20236 40081 ft 462 kts 334°
2026-05-06 23:05 35.45845 -119.23690 40086 ft 458 kts 344°
2026-05-06 23:06 35.51962 -119.25764 40083 ft 456 kts 349°
2026-05-06 23:06 35.58135 -119.27574 40087 ft 456 kts 349°
2026-05-06 23:07 35.64314 -119.29371 40088 ft 456 kts 349°
2026-05-06 23:07 35.70482 -119.31200 40091 ft 456 kts 349°
2026-05-06 23:08 35.76645 -119.33049 40090 ft 456 kts 349°
2026-05-06 23:08 35.82809 -119.34904 40091 ft 456 kts 348°
2026-05-06 23:09 35.88965 -119.36759 40100 ft 455 kts 348°
2026-05-06 23:09 35.95121 -119.38616 40103 ft 455 kts 348°
2026-05-06 23:10 36.01276 -119.40475 40136 ft 456 kts 348°
2026-05-06 23:10 36.07417 -119.42333 40561 ft 452 kts 348°
2026-05-06 23:11 36.13511 -119.44181 40174 ft 452 kts 348°
2026-05-06 23:11 36.19651 -119.46043 40108 ft 456 kts 348°
2026-05-06 23:12 36.25814 -119.47916 40110 ft 456 kts 348°
2026-05-06 23:12 36.31936 -119.49781 40111 ft 456 kts 348°
2026-05-06 23:13 36.38093 -119.51659 40109 ft 456 kts 348°
2026-05-06 23:13 36.44255 -119.53542 40107 ft 456 kts 348°
2026-05-06 23:14 36.50413 -119.55426 40108 ft 456 kts 348°
2026-05-06 23:14 36.56581 -119.57317 40103 ft 456 kts 348°
2026-05-06 23:15 36.62744 -119.59209 40101 ft 456 kts 348°
2026-05-06 23:15 36.68905 -119.61104 40101 ft 456 kts 348°
2026-05-06 23:16 36.75067 -119.63002 40099 ft 456 kts 348°
2026-05-06 23:16 36.81229 -119.64903 40100 ft 456 kts 348°
2026-05-06 23:17 36.87390 -119.66807 40101 ft 456 kts 348°
2026-05-06 23:17 36.93553 -119.68715 40102 ft 456 kts 348°
2026-05-06 23:18 36.99714 -119.70625 40101 ft 456 kts 347°
2026-05-06 23:18 37.05861 -119.72535 40108 ft 455 kts 347°
2026-05-06 23:19 37.11998 -119.74444 40109 ft 454 kts 347°
2026-05-06 23:19 37.18128 -119.76354 40107 ft 454 kts 347°
2026-05-06 23:20 37.24267 -119.78271 40111 ft 454 kts 347°
2026-05-06 23:20 37.30403 -119.80189 40113 ft 454 kts 347°
2026-05-06 23:21 37.36540 -119.82111 40113 ft 454 kts 347°
2026-05-06 23:21 37.42680 -119.84038 40116 ft 455 kts 347°
2026-05-06 23:22 37.48785 -119.85956 40116 ft 455 kts 347°
2026-05-06 23:22 37.54931 -119.87892 40116 ft 455 kts 347°
2026-05-06 23:23 37.61081 -119.89831 40112 ft 456 kts 347°
2026-05-06 23:23 37.67230 -119.91773 40110 ft 456 kts 347°
2026-05-06 23:24 37.73379 -119.93719 40113 ft 456 kts 347°
2026-05-06 23:24 37.79533 -119.95670 40107 ft 456 kts 346°
2026-05-06 23:25 37.85687 -119.97624 40100 ft 456 kts 346°
2026-05-06 23:25 37.91841 -119.99581 40103 ft 456 kts 346°
2026-05-06 23:26 37.97993 -120.01541 40100 ft 456 kts 346°
2026-05-06 23:26 38.04140 -120.03502 40102 ft 456 kts 346°
2026-05-06 23:27 38.10290 -120.05469 40098 ft 456 kts 346°
2026-05-06 23:27 38.16436 -120.07437 40113 ft 456 kts 346°
2026-05-06 23:28 38.22599 -120.09308 40119 ft 455 kts 350°
2026-05-06 23:28 38.28900 -120.10166 40133 ft 455 kts 355°
2026-05-06 23:29 38.35220 -120.10767 40132 ft 456 kts 355°
2026-05-06 23:29 38.41549 -120.11320 40140 ft 456 kts 355°
2026-05-06 23:30 38.47885 -120.11882 40153 ft 457 kts 355°
2026-05-06 23:30 38.54227 -120.12457 40162 ft 457 kts 355°
2026-05-06 23:31 38.60577 -120.13038 40165 ft 457 kts 355°
2026-05-06 23:31 38.66923 -120.13620 40173 ft 457 kts 355°
2026-05-06 23:32 38.72199 -120.14104 40169 ft 457 kts 355°
2026-05-06 23:32 38.78545 -120.14687 40169 ft 457 kts 355°
2026-05-06 23:33 38.85967 -120.15370 40170 ft 458 kts 355°
2026-05-06 23:33 38.92276 -120.15952 40164 ft 458 kts 355°
2026-05-06 23:34 38.98625 -120.16538 40167 ft 457 kts 355°
2026-05-06 23:34 39.04977 -120.17127 40187 ft 458 kts 355°
2026-05-06 23:35 39.11329 -120.17715 40208 ft 458 kts 354°
2026-05-06 23:35 39.16650 -120.18210 40223 ft 458 kts 354°
2026-05-06 23:36 39.22963 -120.18797 40245 ft 458 kts 354°
2026-05-06 23:36 39.29314 -120.19388 40254 ft 458 kts 354°
2026-05-06 23:37 39.35669 -120.19982 40248 ft 458 kts 354°
2026-05-06 23:37 39.38845 -120.20279 40094 ft 458 kts 354°
2026-05-06 23:37 39.42018 -120.20577 40094 ft 458 kts 354°
2026-05-06 23:38 39.48373 -120.21172 40095 ft 458 kts 354°
2026-05-06 23:38 39.54722 -120.21768 40085 ft 457 kts 354°
2026-05-06 23:39 39.61072 -120.22366 40082 ft 457 kts 354°
2026-05-06 23:39 39.67421 -120.22964 40086 ft 458 kts 354°
2026-05-06 23:40 39.73774 -120.23564 40080 ft 458 kts 354°
2026-05-06 23:40 39.80128 -120.24165 40072 ft 458 kts 354°
2026-05-06 23:41 39.86486 -120.24767 40067 ft 458 kts 354°
2026-05-06 23:41 39.92841 -120.25370 40060 ft 458 kts 353°
2026-05-06 23:42 39.99202 -120.25975 40054 ft 458 kts 353°
2026-05-06 23:42 40.05557 -120.26581 40059 ft 458 kts 353°
2026-05-06 23:43 40.11913 -120.27188 40059 ft 458 kts 353°
2026-05-06 23:43 40.18223 -120.27791 40066 ft 458 kts 353°
2026-05-06 23:44 40.24560 -120.28398 40083 ft 458 kts 353°
2026-05-06 23:44 40.30912 -120.29008 40094 ft 458 kts 353°
2026-05-06 23:45 40.37267 -120.29620 40099 ft 458 kts 353°
2026-05-06 23:45 40.43622 -120.30232 40107 ft 458 kts 353°
2026-05-06 23:46 40.49976 -120.30846 40087 ft 458 kts 353°
2026-05-06 23:46 40.56325 -120.31460 40080 ft 457 kts 353°
2026-05-06 23:47 40.62675 -120.32075 40075 ft 457 kts 353°
2026-05-06 23:47 40.69020 -120.32692 40066 ft 457 kts 353°
2026-05-06 23:48 40.75367 -120.33309 40062 ft 457 kts 353°
2026-05-06 23:48 40.78544 -120.33619 40063 ft 457 kts 353°
2026-05-06 23:49 40.81278 -120.33885 40075 ft 457 kts 353°
2026-05-06 23:49 40.87621 -120.34505 40078 ft 457 kts 353°
2026-05-06 23:50 40.93613 -120.35091 40079 ft 457 kts 353°
2026-05-06 23:50 41.03126 -120.36024 40087 ft 457 kts 352°
2026-05-06 23:51 41.09468 -120.36647 40092 ft 457 kts 352°
2026-05-06 23:51 41.15760 -120.37267 40087 ft 456 kts 352°
2026-05-06 23:52 41.22089 -120.37891 40103 ft 456 kts 352°
2026-05-06 23:52 41.28418 -120.38517 40116 ft 456 kts 352°
2026-05-06 23:53 41.34747 -120.39144 40133 ft 456 kts 352°
2026-05-06 23:53 41.41077 -120.39773 40141 ft 456 kts 352°
2026-05-06 23:54 41.47406 -120.40402 40149 ft 456 kts 352°
2026-05-06 23:54 41.53727 -120.41032 40085 ft 455 kts 352°
2026-05-06 23:55 41.60047 -120.41663 40089 ft 455 kts 352°
2026-05-06 23:55 41.66368 -120.42296 40089 ft 456 kts 352°
2026-05-06 23:56 41.72693 -120.42930 40093 ft 456 kts 352°
2026-05-06 23:56 41.79020 -120.43565 40092 ft 456 kts 352°
2026-05-06 23:57 41.85346 -120.44202 40104 ft 456 kts 352°
2026-05-06 23:57 41.91667 -120.44839 40128 ft 455 kts 352°
2026-05-06 23:58 41.97988 -120.45478 40145 ft 455 kts 352°
2026-05-06 23:58 42.04266 -120.46114 40162 ft 456 kts 352°
2026-05-06 23:59 42.10587 -120.46755 40162 ft 455 kts 352°
2026-05-06 23:59 42.16908 -120.47398 40183 ft 455 kts 352°
2026-05-07 00:00 42.23214 -120.48040 40109 ft 454 kts 352°
2026-05-07 00:00 42.29504 -120.48682 40108 ft 453 kts 352°
2026-05-07 00:01 42.35786 -120.49325 40098 ft 453 kts 353°
2026-05-07 00:01 42.42070 -120.49969 40094 ft 453 kts 353°
2026-05-07 00:02 42.48340 -120.50755 40083 ft 451 kts 347°
2026-05-07 00:02 42.51327 -120.51962 40093 ft 447 kts 336°
2026-05-07 00:02 42.54181 -120.53612 40080 ft 446 kts 334°
2026-05-07 00:03 42.59855 -120.57066 40084 ft 447 kts 334°
2026-05-07 00:03 42.65483 -120.60489 40076 ft 446 kts 334°
2026-05-07 00:04 42.71147 -120.63932 40079 ft 445 kts 334°
2026-05-07 00:04 42.76798 -120.67370 40063 ft 445 kts 334°
2026-05-07 00:05 42.82449 -120.70814 40065 ft 445 kts 334°
2026-05-07 00:05 42.88096 -120.74263 40064 ft 445 kts 334°
2026-05-07 00:06 42.93736 -120.77713 40065 ft 444 kts 334°
2026-05-07 00:06 42.99374 -120.81170 40062 ft 444 kts 334°
2026-05-07 00:07 43.05014 -120.84635 40053 ft 444 kts 335°
2026-05-07 00:07 43.10648 -120.88102 40053 ft 444 kts 335°
2026-05-07 00:08 43.16276 -120.91574 40053 ft 444 kts 335°
2026-05-07 00:08 43.21904 -120.95052 40053 ft 444 kts 335°
2026-05-07 00:09 43.27493 -120.98513 40054 ft 443 kts 335°
2026-05-07 00:09 43.33112 -121.02000 40053 ft 443 kts 335°
2026-05-07 00:10 43.38724 -121.05490 40061 ft 442 kts 335°
2026-05-07 00:10 43.44330 -121.08983 40063 ft 442 kts 335°
2026-05-07 00:11 43.49938 -121.12485 40071 ft 443 kts 335°
2026-05-07 00:11 43.55544 -121.15992 40071 ft 443 kts 334°
2026-05-07 00:12 43.61151 -121.19507 40071 ft 443 kts 335°
2026-05-07 00:12 43.66758 -121.23030 40073 ft 443 kts 335°
2026-05-07 00:13 43.72361 -121.26557 40073 ft 442 kts 335°
2026-05-07 00:13 43.77963 -121.30092 40081 ft 443 kts 335°
2026-05-07 00:14 43.83568 -121.33638 40086 ft 443 kts 335°
2026-05-07 00:14 43.89172 -121.37186 40089 ft 443 kts 335°
2026-05-07 00:15 43.94775 -121.40742 40092 ft 443 kts 335°
2026-05-07 00:15 44.00379 -121.44306 40095 ft 443 kts 335°
2026-05-07 00:16 44.05979 -121.47877 40099 ft 442 kts 335°
2026-05-07 00:16 44.11563 -121.51444 40101 ft 441 kts 335°
2026-05-07 00:17 44.17140 -121.55014 40092 ft 441 kts 335°
2026-05-07 00:17 44.22715 -121.58590 40086 ft 441 kts 335°
2026-05-07 00:18 44.28284 -121.62170 40094 ft 441 kts 335°
2026-05-07 00:18 44.33856 -121.65759 40104 ft 441 kts 335°
2026-05-07 00:19 44.39427 -121.69355 40102 ft 441 kts 335°
2026-05-07 00:19 44.44997 -121.72958 40103 ft 441 kts 335°
2026-05-07 00:20 44.50560 -121.76565 40099 ft 441 kts 335°
2026-05-07 00:20 44.56088 -121.80156 40109 ft 441 kts 335°
2026-05-07 00:21 44.61650 -121.83777 40119 ft 440 kts 335°
2026-05-07 00:21 44.67206 -121.87401 40121 ft 440 kts 334°
2026-05-07 00:22 44.72747 -121.91022 40135 ft 439 kts 334°
2026-05-07 00:22 44.78286 -121.94651 40143 ft 439 kts 334°
2026-05-07 00:23 44.83817 -121.98283 40149 ft 439 kts 334°
2026-05-07 00:23 44.89339 -122.01916 40142 ft 437 kts 334°
2026-05-07 00:24 44.94847 -122.05551 40163 ft 437 kts 334°
2026-05-07 00:24 44.99425 -122.08574 40169 ft 437 kts 334°
2026-05-07 00:25 45.04928 -122.12218 40163 ft 437 kts 333°
2026-05-07 00:25 45.10424 -122.15862 40175 ft 436 kts 333°
2026-05-07 00:26 45.15914 -122.19511 40175 ft 437 kts 333°
2026-05-07 00:26 45.21407 -122.23171 40169 ft 436 kts 333°
2026-05-07 00:27 45.26898 -122.26836 40175 ft 437 kts 333°
2026-05-07 00:27 45.32394 -122.30513 40177 ft 437 kts 333°
2026-05-07 00:28 45.37889 -122.34197 40171 ft 437 kts 333°
2026-05-07 00:28 45.43382 -122.37889 40172 ft 437 kts 333°
2026-05-07 00:29 45.48884 -122.41595 40175 ft 437 kts 333°
2026-05-07 00:30 45.59884 -122.49027 40181 ft 437 kts 333°
2026-05-07 00:30 45.65387 -122.52758 40182 ft 438 kts 333°
2026-05-07 00:31 45.70895 -122.56500 40189 ft 438 kts 333°
2026-05-07 00:31 45.76611 -122.59560 40202 ft 442 kts 346°
2026-05-07 00:32 45.82630 -122.61118 40208 ft 443 kts 347°
2026-05-07 00:32 45.88712 -122.62602 40211 ft 443 kts 347°
2026-05-07 00:33 45.94779 -122.64099 40204 ft 443 kts 347°
2026-05-07 00:33 46.00826 -122.65598 39612 ft 438 kts 347°
2026-05-07 00:34 46.03830 -122.66346 38754 ft 441 kts 347°
2026-05-07 00:34 46.06857 -122.67102 37782 ft 443 kts 347°
2026-05-07 00:34 46.09901 -122.67863 36824 ft 445 kts 347°
2026-05-07 00:34 46.12967 -122.68541 35848 ft 448 kts 348°
2026-05-07 00:35 46.16074 -122.69128 34855 ft 451 kts 348°
2026-05-07 00:35 46.19198 -122.69717 33813 ft 455 kts 348°
2026-05-07 00:35 46.22349 -122.70323 32632 ft 459 kts 348°
2026-05-07 00:35 46.25528 -122.70944 31383 ft 463 kts 348°
2026-05-07 00:36 46.28737 -122.71576 30160 ft 469 kts 348°
2026-05-07 00:36 46.31990 -122.72141 28821 ft 474 kts 352°
2026-05-07 00:36 46.35287 -122.72356 27740 ft 473 kts 354°
2026-05-07 00:36 46.38567 -122.72474 26771 ft 470 kts 354°
2026-05-07 00:37 46.41814 -122.72581 25839 ft 460 kts 354°
2026-05-07 00:37 46.44948 -122.72680 24487 ft 443 kts 354°
2026-05-07 00:37 46.48006 -122.72785 23149 ft 432 kts 353°
2026-05-07 00:37 46.50917 -122.72881 22439 ft 405 kts 353°
2026-05-07 00:38 46.53706 -122.72979 21715 ft 402 kts 353°
2026-05-07 00:38 46.56522 -122.73092 20942 ft 407 kts 353°
2026-05-07 00:38 46.59350 -122.73199 20226 ft 404 kts 353°
2026-05-07 00:38 46.62099 -122.73293 20058 ft 386 kts 353°
2026-05-07 00:39 46.64720 -122.73380 19944 ft 368 kts 352°
2026-05-07 00:39 46.67223 -122.73465 19816 ft 351 kts 352°
2026-05-07 00:39 46.69616 -122.73550 19704 ft 337 kts 352°
2026-05-07 00:39 46.71890 -122.73633 19562 ft 325 kts 351°
2026-05-07 00:40 46.74125 -122.73717 19458 ft 321 kts 351°
2026-05-07 00:40 46.76376 -122.73746 18987 ft 327 kts 355°
2026-05-07 00:40 46.78641 -122.73085 18437 ft 341 kts 13°
2026-05-07 00:40 46.80739 -122.71315 17838 ft 355 kts 30°
2026-05-07 00:41 46.82680 -122.69056 17216 ft 360 kts 33°
2026-05-07 00:41 46.84619 -122.66716 16601 ft 362 kts 33°
2026-05-07 00:41 46.86575 -122.64416 16123 ft 357 kts 32°
2026-05-07 00:41 46.88489 -122.62224 15980 ft 342 kts 31°
2026-05-07 00:42 46.90330 -122.60121 15767 ft 331 kts 31°
2026-05-07 00:42 46.92144 -122.58058 15351 ft 330 kts 31°
2026-05-07 00:42 46.94034 -122.56247 14938 ft 319 kts 18°
2026-05-07 00:42 46.96091 -122.55149 14608 ft 314 kts 10°
2026-05-07 00:43 46.98180 -122.54241 14279 ft 313 kts
2026-05-07 00:43 47.00274 -122.53346 13932 ft 313 kts
2026-05-07 00:43 47.02360 -122.52448 13575 ft 312 kts
2026-05-07 00:43 47.04434 -122.51548 13237 ft 310 kts 10°
2026-05-07 00:44 47.06498 -122.50650 12918 ft 308 kts 10°
2026-05-07 00:44 47.08565 -122.49938 12575 ft 302 kts
2026-05-07 00:44 47.10631 -122.49516 12256 ft 299 kts
2026-05-07 00:44 47.12686 -122.49147 11961 ft 297 kts
2026-05-07 00:45 47.14732 -122.48782 11643 ft 296 kts
2026-05-07 00:45 47.16768 -122.48415 11327 ft 294 kts
2026-05-07 00:45 47.18794 -122.48048 11000 ft 292 kts
2026-05-07 00:45 47.20810 -122.47708 10699 ft 291 kts
2026-05-07 00:46 47.22816 -122.47409 10396 ft 289 kts
2026-05-07 00:46 47.24811 -122.47114 10098 ft 288 kts
2026-05-07 00:46 47.26780 -122.46819 9771 ft 287 kts
2026-05-07 00:46 47.28722 -122.46522 9572 ft 275 kts
2026-05-07 00:47 47.30593 -122.46234 9311 ft 266 kts
2026-05-07 00:47 47.32411 -122.45956 9061 ft 261 kts
2026-05-07 00:47 47.34009 -122.45714 8825 ft 260 kts
2026-05-07 00:47 47.35699 -122.45538 8529 ft 256 kts 356°
2026-05-07 00:48 47.37478 -122.45511 8142 ft 255 kts 355°
2026-05-07 00:48 47.39243 -122.45518 7875 ft 250 kts 355°
2026-05-07 00:48 47.40947 -122.45521 7701 ft 241 kts 355°
2026-05-07 00:48 47.42608 -122.45524 7459 ft 236 kts 356°
2026-05-07 00:49 47.44237 -122.45527 7219 ft 233 kts 356°
2026-05-07 00:49 47.45848 -122.45530 6972 ft 230 kts 356°
2026-05-07 00:49 47.47446 -122.45534 6735 ft 229 kts 356°
2026-05-07 00:49 47.49043 -122.45537 6488 ft 229 kts 356°
2026-05-07 00:50 47.50635 -122.45541 6218 ft 228 kts 358°
2026-05-07 00:50 47.52212 -122.45559 6032 ft 226 kts 356°
2026-05-07 00:50 47.53785 -122.45619 5994 ft 226 kts 356°
2026-05-07 00:50 47.55363 -122.45609 5811 ft 228 kts 359°
2026-05-07 00:51 47.56938 -122.45578 5536 ft 225 kts 359°
2026-05-07 00:51 47.58492 -122.45550 5262 ft 222 kts 359°
2026-05-07 00:51 47.60038 -122.45538 4936 ft 222 kts 359°
2026-05-07 00:51 47.61576 -122.45541 4606 ft 221 kts 359°
2026-05-07 00:52 47.63122 -122.45545 4221 ft 223 kts 359°
2026-05-07 00:52 47.64665 -122.45539 4011 ft 217 kts 359°
2026-05-07 00:52 47.66118 -122.45360 4000 ft 207 kts 15°
2026-05-07 00:52 47.67295 -122.44188 4002 ft 207 kts 51°
2026-05-07 00:53 47.67807 -122.42232 4002 ft 205 kts 85°
2026-05-07 00:53 47.67704 -122.40139 3999 ft 205 kts 110°
2026-05-07 00:53 47.67059 -122.38278 4005 ft 202 kts 124°
2026-05-07 00:53 47.66298 -122.36522 3999 ft 203 kts 124°
2026-05-07 00:54 47.65456 -122.34856 4009 ft 200 kts 133°
2026-05-07 00:54 47.64538 -122.33372 4003 ft 193 kts 135°
2026-05-07 00:54 47.63542 -122.32074 3926 ft 191 kts 153°
2026-05-07 00:54 47.62302 -122.31531 3712 ft 184 kts 179°
2026-05-07 00:55 47.61043 -122.31642 3434 ft 179 kts 186°
2026-05-07 00:55 47.59809 -122.31713 3155 ft 175 kts 181°
2026-05-07 00:55 47.58617 -122.31681 2918 ft 169 kts 182°
2026-05-07 00:55 47.57453 -122.31698 2676 ft 163 kts 182°
2026-05-07 00:56 47.56336 -122.31710 2468 ft 159 kts 182°
2026-05-07 00:56 47.55237 -122.31717 2242 ft 157 kts 182°
2026-05-07 00:56 47.54161 -122.31726 2032 ft 151 kts 182°
2026-05-07 00:56 47.53151 -122.31733 1833 ft 140 kts 182°
2026-05-07 00:57 47.52216 -122.31742 1637 ft 129 kts 183°
2026-05-07 00:57 47.51352 -122.31749 1470 ft 120 kts 182°
2026-05-07 00:57 47.50522 -122.31755 1320 ft 119 kts 185°
2026-05-07 00:57 47.49700 -122.31763 1139 ft 118 kts 182°
2026-05-07 00:58 47.48895 -122.31769 967 ft 118 kts 182°
2026-05-07 00:58 47.48079 -122.31774 808 ft 117 kts 185°
2026-05-07 00:58 47.47266 -122.31776 634 ft 115 kts 185°
2026-05-07 00:58 47.46471 -122.31784 478 ft 116 kts 184°
2026-05-07 00:59 47.45176 -122.31802 400 ft 61 kts 180°
2026-05-07 00:59 47.44780 -122.31802 391 ft 52 kts 176°
2026-05-07 00:59 47.44498 -122.31666 383 ft 40 kts 152°
2026-05-07 01:00 47.44297 -122.31496 383 ft 23 kts 144°
2026-05-07 01:00 47.44228 -122.31303 387 ft 22 kts 107°
2026-05-07 01:00 47.44166 -122.31098 390 ft 15 kts 131°
2026-05-07 01:00 47.44061 -122.31015 387 ft 20 kts 154°
2026-05-07 01:01 47.43931 -122.30900 385 ft 21 kts 133°
2026-05-07 01:01 47.43897 -122.30687 386 ft 21 kts 108°
2026-05-07 01:01 47.43804 -122.30639 384 ft 17 kts 175°
2026-05-07 01:01 47.43725 -122.30565 384 ft 13 kts 97°
2026-05-07 01:02 47.43722 -122.30420 387 ft 16 kts 91°
2026-05-07 01:02 47.43739 -122.30236 388 ft 20 kts 77°
2026-05-07 01:02 47.43771 -122.30023 390 ft 14 kts 70°
2026-05-07 01:02 47.43842 -122.29969 393 ft 12 kts 10°
2026-05-07 01:03 47.43890 -122.29958 391 ft 6 kts 10°
2026-05-07 01:03 47.43932 -122.29919 391 ft 8 kts 49°
2026-05-07 01:03 47.43954 -122.29868 391 ft 4 kts 60°
2026-05-07 01:03 47.43960 -122.29852 392 ft 1 kts 60°
2026-05-07 01:04 47.43962 -122.29848 392 ft 0 kts 60°